• In United Kingdom
  • List of Countries
  • For 7 days
  • Water Temperature
  • Satellite Maps
  • Weather Map
  • Weather Widgets
  • user-avatar
    Login

    Hourly Weather Wadzhda

    Today, 17 July, Tuesday

    Time Temperature Precipitation Wind Pressure Humidity
    00:00 +27°C° 0 mm 1 mps 715 mmHg 40%
    01:00 +27°C° 0 mm 1 mps 715 mmHg 40%
    02:00 +27°C° 0 mm 1 mps 714 mmHg 39%
    03:00 +27°C° 0 mm 1 mps 714 mmHg 39%
    04:00 +27°C° 0 mm 1 mps 714 mmHg 39%
    05:00 +27°C° 0 mm 1 mps 714 mmHg 39%
    06:00 +27°C° 0 mm 1 mps 714 mmHg 37%
    07:00 +29°C° 0 mm 1 mps 714 mmHg 34%
    08:00 +30°C° 0 mm 1 mps 714 mmHg 31%
    09:00 +31°C° 0 mm 1 mps 714 mmHg 28%
    10:00 +34°C° 0 mm 2 mps 714 mmHg 26%
    11:00 +35°C° 0 mm 2 mps 714 mmHg 24%
    12:00 +37°C° 0 mm 3 mps 714 mmHg 22%
    13:00 +37°C° 0 mm 3 mps 714 mmHg 22%
    14:00 +37°C° 0 mm 3 mps 713 mmHg 23%
    15:00 +37°C° 0 mm 4 mps 713 mmHg 24%
    16:00 +36°C° 0 mm 4 mps 712 mmHg 27%
    17:00 +35°C° 0 mm 3 mps 712 mmHg 31%
    18:00 +34°C° 0 mm 3 mps 712 mmHg 34%
    19:00 +33°C° 0 mm 3 mps 712 mmHg 39%
    20:00 +30°C° 0 mm 2 mps 712 mmHg 43%
    21:00 +29°C° 0 mm 2 mps 713 mmHg 48%
    22:00 +29°C° 0 mm 2 mps 713 mmHg 48%
    23:00 +28°C° 0 mm 1 mps 713 mmHg 49%

    Tomorrow, 18 July, Wednesday

    Time Temperature Precipitation Wind Pressure Humidity
    00:00 +28°C° 0 mm 1 mps 713 mmHg 50%
    01:00 +27°C° 0 mm 1 mps 712 mmHg 52%
    02:00 +27°C° 0 mm 1 mps 712 mmHg 54%
    03:00 +26°C° 0 mm 1 mps 712 mmHg 56%
    04:00 +26°C° 0 mm 1 mps 712 mmHg 56%
    05:00 +26°C° 0 mm 1 mps 712 mmHg 56%
    06:00 +24°C° 0 mm 0 mps 712 mmHg 56%
    07:00 +28°C° 0 mm 1 mps 713 mmHg 50%
    08:00 +29°C° 0 mm 1 mps 713 mmHg 44%
    09:00 +31°C° 0 mm 2 mps 714 mmHg 37%
    10:00 +32°C° 0 mm 2 mps 714 mmHg 34%
    11:00 +35°C° 0 mm 3 mps 714 mmHg 32%
    12:00 +36°C° 0 mm 3 mps 714 mmHg 29%
    13:00 +36°C° 0 mm 4 mps 714 mmHg 30%
    14:00 +36°C° 0 mm 4 mps 714 mmHg 31%
    15:00 +36°C° 0 mm 4 mps 713 mmHg 32%
    16:00 +35°C° 0 mm 4 mps 713 mmHg 35%
    17:00 +34°C° 0 mm 4 mps 713 mmHg 38%
    18:00 +33°C° 0 mm 3 mps 713 mmHg 41%
    19:00 +31°C° 0 mm 3 mps 713 mmHg 44%
    20:00 +30°C° 0 mm 2 mps 714 mmHg 47%
    21:00 +29°C° 0 mm 2 mps 714 mmHg 50%
    22:00 +29°C° 0 mm 1 mps 714 mmHg 49%
    23:00 +29°C° 0 mm 1 mps 714 mmHg 49%

    Day after tomorrow, 19 July, Thursday

    Time Temperature Precipitation Wind Pressure Humidity
    00:00 +27°C° 0 mm 0 mps 714 mmHg 48%
    01:00 +27°C° 0 mm 0 mps 714 mmHg 47%
    02:00 +29°C° 0 mm 1 mps 714 mmHg 47%
    03:00 +28°C° 0 mm 1 mps 713 mmHg 46%
    04:00 +28°C° 0 mm 1 mps 713 mmHg 46%
    05:00 +28°C° 0 mm 1 mps 714 mmHg 46%
    06:00 +28°C° 0 mm 1 mps 714 mmHg 46%
    07:00 +30°C° 0 mm 1 mps 714 mmHg 40%
    08:00 +32°C° 0 mm 1 mps 714 mmHg 35%
    09:00 +34°C° 0 mm 1 mps 715 mmHg 30%
    10:00 +36°C° 0 mm 2 mps 715 mmHg 28%
    11:00 +37°C° 0 mm 2 mps 714 mmHg 27%
    12:00 +38°C° 0 mm 2 mps 714 mmHg 26%
    13:00 +38°C° 0 mm 3 mps 714 mmHg 27%
    14:00 +38°C° 0 mm 4 mps 714 mmHg 27%
    15:00 +38°C° 0 mm 4 mps 713 mmHg 28%
    16:00 +37°C° 0 mm 4 mps 713 mmHg 31%
    17:00 +36°C° 0 mm 4 mps 713 mmHg 34%
    18:00 +34°C° 0 mm 3 mps 713 mmHg 36%
    19:00 +34°C° 0 mm 3 mps 713 mmHg 37%
    20:00 +32°C° 0 mm 2 mps 714 mmHg 39%
    21:00 +31°C° 0 mm 2 mps 714 mmHg 40%
    22:00 +31°C° 0 mm 2 mps 714 mmHg 39%
    23:00 +31°C° 0 mm 1 mps 714 mmHg 38%

    20 July, Friday

    Time Temperature Precipitation Wind Pressure Humidity
    00:00 +31°C° 0 mm 1 mps 714 mmHg 37%
    01:00 +31°C° 0 mm 1 mps 714 mmHg 38%
    02:00 +30°C° 0 mm 1 mps 713 mmHg 39%
    03:00 +30°C° 0 mm 1 mps 713 mmHg 40%
    04:00 +29°C° 0 mm 1 mps 713 mmHg 40%
    05:00 +29°C° 0 mm 1 mps 713 mmHg 40%
    06:00 +29°C° 0 mm 1 mps 713 mmHg 40%
    07:00 +30°C° 0 mm 1 mps 713 mmHg 36%
    08:00 +32°C° 0 mm 1 mps 714 mmHg 33%
    09:00 +33°C° 0 mm 1 mps 714 mmHg 29%
    10:00 +35°C° 0 mm 2 mps 714 mmHg 25%
    11:00 +36°C° 0 mm 2 mps 714 mmHg 22%
    12:00 +38°C° 0 mm 3 mps 714 mmHg 19%
    13:00 +38°C° 0 mm 4 mps 713 mmHg 19%
    14:00 +38°C° 0 mm 4 mps 713 mmHg 19%
    15:00 +39°C° 0 mm 5 mps 713 mmHg 19%
    16:00 +37°C° 0 mm 4 mps 712 mmHg 20%
    17:00 +36°C° 0 mm 4 mps 712 mmHg 22%
    18:00 +35°C° 0 mm 3 mps 712 mmHg 23%
    19:00 +34°C° 0 mm 3 mps 713 mmHg 23%
    20:00 +32°C° 0 mm 2 mps 713 mmHg 24%
    21:00 +31°C° 0 mm 1 mps 713 mmHg 25%
    22:00 +31°C° 0 mm 1 mps 713 mmHg 25%
    23:00 +30°C° 0 mm 1 mps 713 mmHg 26%

    21 July, Saturday

    Time Temperature Precipitation Wind Pressure Humidity
    00:00 +28°C° 0 mm 0 mps 713 mmHg 27%
    01:00 +27°C° 0 mm 0 mps 713 mmHg 28%
    02:00 +27°C° 0 mm 0 mps 713 mmHg 29%
    03:00 +26°C° 0 mm 0 mps 712 mmHg 30%
    04:00 +26°C° 0 mm 0 mps 712 mmHg 30%
    05:00 +26°C° 0 mm 0 mps 713 mmHg 30%
    06:00 +26°C° 0 mm 0 mps 713 mmHg 31%
    07:00 +30°C° 0 mm 1 mps 713 mmHg 27%
    08:00 +31°C° 0 mm 1 mps 714 mmHg 24%
    09:00 +33°C° 0 mm 1 mps 714 mmHg 21%
    10:00 +35°C° 0 mm 2 mps 714 mmHg 20%
    11:00 +36°C° 0 mm 2 mps 714 mmHg 19%
    12:00 +37°C° 0 mm 3 mps 714 mmHg 18%
    13:00 +38°C° 0 mm 3 mps 714 mmHg 18%
    14:00 +38°C° 0 mm 4 mps 713 mmHg 19%
    15:00 +38°C° 0 mm 4 mps 713 mmHg 19%
    16:00 +37°C° 0 mm 4 mps 713 mmHg 21%
    17:00 +36°C° 0 mm 4 mps 713 mmHg 23%
    18:00 +35°C° 0 mm 3 mps 713 mmHg 25%
    19:00 +34°C° 0 mm 3 mps 713 mmHg 27%
    20:00 +32°C° 0 mm 2 mps 714 mmHg 29%
    21:00 +31°C° 0 mm 2 mps 714 mmHg 31%
    22:00 +31°C° 0.1 mm 2 mps 714 mmHg 32%
    23:00 +30°C° 0.1 mm 2 mps 714 mmHg 33%

    22 July, Sunday

    Time Temperature Precipitation Wind Pressure Humidity
    00:00 +30°C° 0.1 mm 1 mps 714 mmHg 33%
    01:00 +30°C° 0 mm 1 mps 714 mmHg 35%
    02:00 +29°C° 0 mm 1 mps 714 mmHg 37%
    03:00 +29°C° 0 mm 1 mps 714 mmHg 38%
    04:00 +29°C° 0 mm 1 mps 714 mmHg 39%
    05:00 +29°C° 0 mm 1 mps 714 mmHg 39%
    06:00 +29°C° 0 mm 1 mps 714 mmHg 39%
    07:00 +30°C° 0 mm 1 mps 714 mmHg 37%
    08:00 +30°C° 0 mm 1 mps 714 mmHg 35%
    09:00 +31°C° 0 mm 1 mps 715 mmHg 32%
    10:00 +34°C° 0 mm 2 mps 715 mmHg 31%
    11:00 +35°C° 0 mm 2 mps 715 mmHg 29%
    12:00 +37°C° 0 mm 2 mps 715 mmHg 28%
    13:00 +37°C° 0 mm 3 mps 714 mmHg 29%
    14:00 +37°C° 0 mm 4 mps 714 mmHg 30%
    15:00 +37°C° 0 mm 4 mps 714 mmHg 32%
    16:00 +36°C° 0 mm 4 mps 714 mmHg 35%
    17:00 +36°C° 0 mm 4 mps 713 mmHg 38%
    18:00 +35°C° 0 mm 4 mps 713 mmHg 41%
    19:00 +33°C° 0 mm 3 mps 714 mmHg 45%
    20:00 +31°C° 0 mm 2 mps 714 mmHg 50%
    21:00 +30°C° 0 mm 2 mps 714 mmHg 54%
    22:00 +30°C° 0 mm 1 mps 714 mmHg 54%
    23:00 +30°C° 0 mm 1 mps 714 mmHg 55%
    Show more